Flag for Switzerland Weather past 2 weeks in Lugano, Switzerland

Now
77 °F

Passing clouds.


Feels Like: 79 °F
Forecast: 60 / 86 °F
Wind: 7 mph from South

Location: Lugano Airport

Current Time: Aug 2, 2015 at 1:22:40 PM

Latest Report: Aug 2, 2015 at 12:50 PM


Visibility: N/A

Pressure: 30.04 "Hg

Humidity: 61%

Dew point: 63 °F

Location of LuganoLocation

Historic Weather in Lugano — Graph

°F

Lugano temperature yesterday

Maximum temperature yesterday: 70 °F (at 12:20 AM)
Minimum temperature yesterday: 63 °F (at 6:50 AM)
Average temperature yesterday: 66 °F

Past Weeks' High & Low Weather Summary

 TemperatureHumidityPressure
High95 °F (Jul 21, 3:20 PM)100% (Jul 29, 4:50 AM)30.07 "Hg (Jul 29, 4:50 AM)
Low57 °F (Aug 2, 5:50 AM)27% (Jul 26, 12:50 AM)29.65 "Hg (Jul 27, 4:20 PM)
Average77 °F65%29.88 "Hg
* Reported Jul 18 12:20 PM — Aug 2 12:20 PM, Lugano, Weather by CustomWeather, © 2015

Note: Actual official high and low records may vary slightly from our data, if they occured in-between our weather recording intervals... More about our weather records

Advertising

Lugano weather history for previous 24 hours

 ConditionsComfort  
Time TempWeatherWind HumidityBarometerVisibility
12:20 PM
Sun, Aug 2
75 °FPassing clouds.6 mph61%30.04 "HgN/A
11:50 AM73 °FPassing clouds.5 mph65%30.04 "HgN/A
11:20 AM73 °FPassing clouds.5 mph65%30.04 "HgN/A
10:50 AM72 °FPassing clouds.5 mph65%30.04 "HgN/A
10:20 AM70 °FPassing clouds.3 mph73%30.04 "HgN/A
9:50 AM68 °FPassing clouds.2 mph78%30.04 "HgN/A
9:20 AM68 °FPassing clouds.2 mph78%30.04 "HgN/A
8:50 AM66 °FPassing clouds.2 mph83%30.04 "HgN/A
8:20 AM61 °FPassing clouds.2 mph100%30.04 "HgN/A
7:50 AM59 °FPassing clouds.1 mph94%30.04 "HgN/A
7:20 AM59 °FPassing clouds.1 mph94%30.04 "HgN/A
6:50 AM57 °FPassing clouds.3 mph100%30.04 "HgN/A
6:20 AM57 °FPassing clouds.3 mph100%30.04 "HgN/A
5:50 AM57 °FPassing clouds.3 mph100%30.04 "HgN/A
5:20 AM59 °FClear.2 mph94%30.04 "Hg10 mi
4:50 AM59 °FClear.1 mph94%30.04 "Hg10 mi
4:20 AM59 °FCool.2 mph94%30.04 "Hg5 mi
3:50 AM59 °FPassing clouds.1 mph100%30.04 "HgN/A
3:20 AM61 °FPassing clouds.1 mph94%30.04 "HgN/A
2:50 AM61 °FPassing clouds.3 mph94%30.04 "HgN/A
2:20 AM61 °FPassing clouds.1 mph94%30.04 "HgN/A
1:50 AM63 °FOvercast.6 mph88%30.04 "HgN/A
1:20 AM63 °FOvercast.3 mph94%30.04 "Hg6 mi
12:50 AM61 °FOvercast.2 mph94%30.04 "HgN/A
11:20 PM
Sat, Aug 1
63 °FOvercast.1 mph94%30.04 "HgN/A
10:20 PM63 °FOvercast.2 mph94%30.04 "HgN/A
9:50 PM63 °FPartly sunny.3 mph94%30.01 "HgN/A
9:20 PM63 °FBroken clouds.1 mph94%30.01 "HgN/A
8:50 PM64 °FBroken clouds.2 mph88%30.01 "HgN/A
8:20 PM64 °FBroken clouds.3 mph88%30.01 "HgN/A
7:50 PM64 °FBroken clouds.2 mph88%30.01 "HgN/A
7:20 PM64 °FBroken clouds.2 mph83%30.01 "HgN/A
6:50 PM64 °FBroken clouds.2 mph83%30.01 "HgN/A
6:20 PM64 °FBroken clouds.2 mph88%30.01 "HgN/A
5:50 PM66 °FLight rain. Partly sunny.3 mph88%30.04 "HgN/A
5:20 PM66 °FLight rain. Partly sunny.3 mph78%30.01 "HgN/A
4:50 PM68 °FPartly sunny.5 mph73%30.01 "HgN/A
4:20 PM70 °FPartly sunny.3 mph73%30.01 "HgN/A
3:50 PM68 °FOvercast.2 mph73%30.01 "HgN/A
3:20 PM68 °FOvercast.3 mph73%30.04 "HgN/A
2:50 PM68 °FOvercast.1 mph73%30.04 "HgN/A
2:20 PM68 °FScattered showers. Overcast.1 mph73%30.04 "HgN/A
1:50 PM66 °FScattered showers. Overcast.3 mph78%30.04 "HgN/A
1:20 PM66 °FOvercast.2 mph83%30.04 "HgN/A
Weather by CustomWeather, © 2015

See weather overviewHow to use our weather pages